Year,Month,Day,Hour,Minute,Value (Times are PST for temperature in C)
2019,05,31,00,00,15.90
2019,05,31,00,01,15.80
2019,05,31,00,02,15.80
2019,05,31,00,03,15.80
2019,05,31,00,04,15.80
2019,05,31,00,05,15.80
2019,05,31,00,06,15.80
2019,05,31,00,07,15.80
2019,05,31,00,08,15.80
2019,05,31,00,09,15.70
2019,05,31,00,10,15.70
2019,05,31,00,11,15.70
2019,05,31,00,12,15.70
2019,05,31,00,13,15.70
2019,05,31,00,14,15.70
2019,05,31,00,15,15.60
2019,05,31,00,16,15.60
2019,05,31,00,17,15.60
2019,05,31,00,18,15.60
2019,05,31,00,19,15.60
2019,05,31,00,20,15.50
2019,05,31,00,21,15.50
2019,05,31,00,22,15.50
2019,05,31,00,23,15.40
2019,05,31,00,24,15.40
2019,05,31,00,25,15.40
2019,05,31,00,26,15.40
2019,05,31,00,27,15.40
2019,05,31,00,28,15.30
2019,05,31,00,29,15.30
2019,05,31,00,30,15.30
2019,05,31,00,31,15.30
2019,05,31,00,32,15.30
2019,05,31,00,33,15.20
2019,05,31,00,34,15.20
2019,05,31,00,35,15.20
2019,05,31,00,36,15.20
2019,05,31,00,37,15.20
2019,05,31,00,38,15.10
2019,05,31,00,39,15.10
2019,05,31,00,40,15.10
2019,05,31,00,41,15.10
2019,05,31,00,42,15.10
2019,05,31,00,43,15.00
2019,05,31,00,44,15.00
2019,05,31,00,45,15.00
2019,05,31,00,46,14.90
2019,05,31,00,47,14.90
2019,05,31,00,48,14.90
2019,05,31,00,49,14.90
2019,05,31,00,50,14.90
2019,05,31,00,51,14.90
2019,05,31,00,52,14.90
2019,05,31,00,53,14.90
2019,05,31,00,54,14.80
2019,05,31,00,55,14.80
2019,05,31,00,56,14.80
2019,05,31,00,57,14.80
2019,05,31,00,58,14.80
2019,05,31,00,59,14.80
2019,05,31,01,00,14.80
2019,05,31,01,01,14.80
2019,05,31,01,02,14.70
2019,05,31,01,03,14.70
2019,05,31,01,04,14.70
2019,05,31,01,05,14.70
2019,05,31,01,06,14.70
2019,05,31,01,07,14.70
2019,05,31,01,08,14.60
2019,05,31,01,09,14.60
2019,05,31,01,10,14.60
2019,05,31,01,11,14.60
2019,05,31,01,12,14.60
2019,05,31,01,13,14.60
2019,05,31,01,14,14.50
2019,05,31,01,15,14.50
2019,05,31,01,16,14.50
2019,05,31,01,17,14.50
2019,05,31,01,18,14.40
2019,05,31,01,19,14.40
2019,05,31,01,20,14.40
2019,05,31,01,21,14.40
2019,05,31,01,22,14.40
2019,05,31,01,23,14.40
2019,05,31,01,24,14.40
2019,05,31,01,25,14.40
2019,05,31,01,26,14.30
2019,05,31,01,27,14.30
2019,05,31,01,28,14.30
2019,05,31,01,29,14.30
2019,05,31,01,30,14.30
2019,05,31,01,31,14.30
2019,05,31,01,32,14.30
2019,05,31,01,33,14.30
2019,05,31,01,34,14.30
2019,05,31,01,35,14.30
2019,05,31,01,36,14.30
2019,05,31,01,37,14.20
2019,05,31,01,38,14.20
2019,05,31,01,39,14.20
2019,05,31,01,40,14.20
2019,05,31,01,41,14.20
2019,05,31,01,42,14.20
2019,05,31,01,43,14.20
2019,05,31,01,44,14.10
2019,05,31,01,45,14.10
2019,05,31,01,46,14.10
2019,05,31,01,47,14.10
2019,05,31,01,48,14.10
2019,05,31,01,49,14.00
2019,05,31,01,50,14.00
2019,05,31,01,51,14.00
2019,05,31,01,52,13.90
2019,05,31,01,53,13.90
2019,05,31,01,54,13.90
2019,05,31,01,55,13.90
2019,05,31,01,56,13.90
2019,05,31,01,57,13.80
2019,05,31,01,58,13.80
2019,05,31,01,59,13.80
2019,05,31,02,00,13.80
2019,05,31,02,01,13.80
2019,05,31,02,02,13.80
2019,05,31,02,03,13.80
2019,05,31,02,04,13.80
2019,05,31,02,05,13.70
2019,05,31,02,06,13.70
2019,05,31,02,07,13.70
2019,05,31,02,08,13.70
2019,05,31,02,09,13.70
2019,05,31,02,10,13.70
2019,05,31,02,11,13.70
2019,05,31,02,12,13.70
2019,05,31,02,13,13.60
2019,05,31,02,14,13.60
2019,05,31,02,15,13.60
2019,05,31,02,16,13.60
2019,05,31,02,17,13.50
2019,05,31,02,18,13.50
2019,05,31,02,19,13.50
2019,05,31,02,20,13.50
2019,05,31,02,21,13.50
2019,05,31,02,22,13.40
2019,05,31,02,23,13.40
2019,05,31,02,24,13.40
2019,05,31,02,25,13.40
2019,05,31,02,26,13.40
2019,05,31,02,27,13.40
2019,05,31,02,28,13.40
2019,05,31,02,29,13.30
2019,05,31,02,30,13.30
2019,05,31,02,31,13.30
2019,05,31,02,32,13.30
2019,05,31,02,33,13.30
2019,05,31,02,34,13.30
2019,05,31,02,35,13.30
2019,05,31,02,36,13.20
2019,05,31,02,37,13.20
2019,05,31,02,38,13.20
2019,05,31,02,39,13.20
2019,05,31,02,40,13.20
2019,05,31,02,41,13.20
2019,05,31,02,42,13.20
2019,05,31,02,43,13.10
2019,05,31,02,44,13.10
2019,05,31,02,45,13.10
2019,05,31,02,46,13.10
2019,05,31,02,47,13.10
2019,05,31,02,48,13.10
2019,05,31,02,49,13.10
2019,05,31,02,50,13.10
2019,05,31,02,51,13.10
2019,05,31,02,52,13.00
2019,05,31,02,53,13.00
2019,05,31,02,54,13.00
2019,05,31,02,55,13.00
2019,05,31,02,56,13.00
2019,05,31,02,57,13.00
2019,05,31,02,58,13.00
2019,05,31,02,59,13.00
2019,05,31,03,00,12.90
2019,05,31,03,01,12.90
2019,05,31,03,02,12.90
2019,05,31,03,03,12.90
2019,05,31,03,04,12.90
2019,05,31,03,05,12.90
2019,05,31,03,06,12.90
2019,05,31,03,07,12.90
2019,05,31,03,08,12.90
2019,05,31,03,09,12.80
2019,05,31,03,10,12.80
2019,05,31,03,11,12.80
2019,05,31,03,12,12.80
2019,05,31,03,13,12.80
2019,05,31,03,14,12.80
2019,05,31,03,15,12.80
2019,05,31,03,16,12.80
2019,05,31,03,17,12.80
2019,05,31,03,18,12.80
2019,05,31,03,19,12.80
2019,05,31,03,20,12.70
2019,05,31,03,21,12.70
2019,05,31,03,22,12.70
2019,05,31,03,23,12.70
2019,05,31,03,24,12.70
2019,05,31,03,25,12.70
2019,05,31,03,26,12.70
2019,05,31,03,27,12.70
2019,05,31,03,28,12.60
2019,05,31,03,29,12.60
2019,05,31,03,30,12.60
2019,05,31,03,31,12.60
2019,05,31,03,32,12.60
2019,05,31,03,33,12.60
2019,05,31,03,34,12.50
2019,05,31,03,35,12.50
2019,05,31,03,36,12.50
2019,05,31,03,37,12.40
2019,05,31,03,38,12.40
2019,05,31,03,39,12.40
2019,05,31,03,40,12.40
2019,05,31,03,41,12.30
2019,05,31,03,42,12.30
2019,05,31,03,43,12.30
2019,05,31,03,44,12.30
2019,05,31,03,45,12.30
2019,05,31,03,46,12.30
2019,05,31,03,47,12.30
2019,05,31,03,48,12.30
2019,05,31,03,49,12.30
2019,05,31,03,50,12.30
2019,05,31,03,51,12.30
2019,05,31,03,52,12.30
2019,05,31,03,53,12.30
2019,05,31,03,54,12.20
2019,05,31,03,55,12.20
2019,05,31,03,56,12.20
2019,05,31,03,57,12.20
2019,05,31,03,58,12.20
2019,05,31,03,59,12.20
2019,05,31,04,00,12.20
2019,05,31,04,01,12.20
2019,05,31,04,02,12.20
2019,05,31,04,03,12.20
2019,05,31,04,04,12.20
2019,05,31,04,05,12.20
2019,05,31,04,06,12.20
2019,05,31,04,07,12.20
2019,05,31,04,08,12.20
2019,05,31,04,09,12.20
2019,05,31,04,10,12.20
2019,05,31,04,11,12.20
2019,05,31,04,12,12.20
2019,05,31,04,13,12.20
2019,05,31,04,14,12.20
2019,05,31,04,15,12.10
2019,05,31,04,16,12.10
2019,05,31,04,17,12.10
2019,05,31,04,18,12.10
2019,05,31,04,19,12.10
2019,05,31,04,20,12.10
2019,05,31,04,21,12.00
2019,05,31,04,22,12.00
2019,05,31,04,23,12.00
2019,05,31,04,24,12.00
2019,05,31,04,25,11.90
2019,05,31,04,26,11.90
2019,05,31,04,27,11.90
2019,05,31,04,28,11.90
2019,05,31,04,29,11.90
2019,05,31,04,30,11.90
2019,05,31,04,31,11.90
2019,05,31,04,32,11.90
2019,05,31,04,33,11.90
2019,05,31,04,34,11.90
2019,05,31,04,35,11.90
2019,05,31,04,36,11.90
2019,05,31,04,37,11.90
2019,05,31,04,38,11.90
2019,05,31,04,39,11.90
2019,05,31,04,40,11.90
2019,05,31,04,41,11.80
2019,05,31,04,42,11.80
2019,05,31,04,43,11.80
2019,05,31,04,44,11.80
2019,05,31,04,45,11.80
2019,05,31,04,46,11.80
2019,05,31,04,47,11.80
2019,05,31,04,48,11.80
2019,05,31,04,49,11.80
2019,05,31,04,50,11.80
2019,05,31,04,51,11.80
2019,05,31,04,52,11.70
2019,05,31,04,53,11.70
2019,05,31,04,54,11.70
2019,05,31,04,55,11.70
2019,05,31,04,56,11.70
2019,05,31,04,57,11.70
2019,05,31,04,58,11.70
2019,05,31,04,59,11.60
2019,05,31,05,00,11.60
2019,05,31,05,01,11.60
2019,05,31,05,02,11.60
2019,05,31,05,03,11.60
2019,05,31,05,04,11.50
2019,05,31,05,05,11.50
2019,05,31,05,06,11.50
2019,05,31,05,07,11.50
2019,05,31,05,08,11.50
2019,05,31,05,09,11.50
2019,05,31,05,10,11.50
2019,05,31,05,11,11.50
2019,05,31,05,12,11.50
2019,05,31,05,13,11.50
2019,05,31,05,14,11.50
2019,05,31,05,15,11.50
2019,05,31,05,16,11.40
2019,05,31,05,17,11.50
2019,05,31,05,18,11.40
2019,05,31,05,19,11.50
2019,05,31,05,20,11.40
2019,05,31,05,21,11.40
2019,05,31,05,22,11.40
2019,05,31,05,23,11.40
2019,05,31,05,24,11.40
2019,05,31,05,25,11.30
2019,05,31,05,26,11.30
2019,05,31,05,27,11.30
2019,05,31,05,28,11.30
2019,05,31,05,29,11.40
2019,05,31,05,30,11.40
2019,05,31,05,31,11.40
2019,05,31,05,32,11.40
2019,05,31,05,33,11.40
2019,05,31,05,34,11.40
2019,05,31,05,35,11.30
2019,05,31,05,36,11.30
2019,05,31,05,37,11.30
2019,05,31,05,38,11.30
2019,05,31,05,39,11.30
2019,05,31,05,40,11.30
2019,05,31,05,41,11.30
2019,05,31,05,42,11.40
2019,05,31,05,43,11.40
2019,05,31,05,44,11.40
2019,05,31,05,45,11.40
2019,05,31,05,46,11.40
2019,05,31,05,47,11.40
2019,05,31,05,48,11.40
2019,05,31,05,49,11.40
2019,05,31,05,50,11.40
2019,05,31,05,51,11.40
2019,05,31,05,52,11.40
2019,05,31,05,53,11.40
2019,05,31,05,54,11.50
2019,05,31,05,55,11.50
2019,05,31,05,56,11.50
2019,05,31,05,57,11.50
2019,05,31,05,58,11.50
2019,05,31,05,59,11.40
2019,05,31,06,00,11.40
2019,05,31,06,01,11.40
2019,05,31,06,02,11.40
2019,05,31,06,03,11.40
2019,05,31,06,04,11.40
2019,05,31,06,05,11.40
2019,05,31,06,06,11.40
2019,05,31,06,07,11.40
2019,05,31,06,08,11.40
2019,05,31,06,09,11.40
2019,05,31,06,10,11.40
2019,05,31,06,11,11.40
2019,05,31,06,12,11.40
2019,05,31,06,13,11.40
2019,05,31,06,14,11.40
2019,05,31,06,15,11.40
2019,05,31,06,16,11.40
2019,05,31,06,17,11.40
2019,05,31,06,18,11.40
2019,05,31,06,19,11.40
2019,05,31,06,20,11.40
2019,05,31,06,21,11.40
2019,05,31,06,22,11.40
2019,05,31,06,23,11.40
2019,05,31,06,24,11.40
2019,05,31,06,25,11.40
2019,05,31,06,26,11.40
2019,05,31,06,27,11.50
2019,05,31,06,28,11.50
2019,05,31,06,29,11.50
2019,05,31,06,30,11.60
2019,05,31,06,31,11.60
2019,05,31,06,32,11.60
2019,05,31,06,33,11.70
2019,05,31,06,34,11.70
2019,05,31,06,35,11.70
2019,05,31,06,36,11.80
2019,05,31,06,37,11.80
2019,05,31,06,38,11.80
2019,05,31,06,39,11.90
2019,05,31,06,40,11.90
2019,05,31,06,41,11.90
2019,05,31,06,42,12.00
2019,05,31,06,43,12.00
2019,05,31,06,44,12.00
2019,05,31,06,45,12.10
2019,05,31,06,46,12.10
2019,05,31,06,47,12.10
2019,05,31,06,48,12.10
2019,05,31,06,49,12.20
2019,05,31,06,50,12.20
2019,05,31,06,51,12.20
2019,05,31,06,52,12.30
2019,05,31,06,53,12.30
2019,05,31,06,54,12.30
2019,05,31,06,55,12.40
2019,05,31,06,56,12.40
2019,05,31,06,57,12.50
2019,05,31,06,58,12.50
2019,05,31,06,59,12.60
2019,05,31,07,00,12.70
2019,05,31,07,01,12.80
2019,05,31,07,02,12.80
2019,05,31,07,03,12.90
2019,05,31,07,04,13.00
2019,05,31,07,05,13.00
2019,05,31,07,06,13.10
2019,05,31,07,07,13.10
2019,05,31,07,08,13.10
2019,05,31,07,09,13.20
2019,05,31,07,10,13.20
2019,05,31,07,11,13.20
2019,05,31,07,12,13.30
2019,05,31,07,13,13.30
2019,05,31,07,14,13.30
2019,05,31,07,15,13.40
2019,05,31,07,16,13.40
2019,05,31,07,17,13.40
2019,05,31,07,18,13.50
2019,05,31,07,19,13.50
2019,05,31,07,20,13.50
2019,05,31,07,21,13.60
2019,05,31,07,22,13.60
2019,05,31,07,23,13.60
2019,05,31,07,24,13.70
2019,05,31,07,25,13.70
2019,05,31,07,26,13.70
2019,05,31,07,27,13.80
2019,05,31,07,28,13.90
2019,05,31,07,29,14.00
2019,05,31,07,30,14.00
2019,05,31,07,31,14.10
2019,05,31,07,32,14.20
2019,05,31,07,33,14.20
2019,05,31,07,34,14.30
2019,05,31,07,35,14.30
2019,05,31,07,36,14.40
2019,05,31,07,37,14.40
2019,05,31,07,38,14.50
2019,05,31,07,39,14.50
2019,05,31,07,40,14.60
2019,05,31,07,41,14.60
2019,05,31,07,42,14.60
2019,05,31,07,43,14.70
2019,05,31,07,44,14.70
2019,05,31,07,45,14.80
2019,05,31,07,46,14.80
2019,05,31,07,47,14.80
2019,05,31,07,48,14.90
2019,05,31,07,49,14.90
2019,05,31,07,50,15.00
2019,05,31,07,51,15.10
2019,05,31,07,52,15.10
2019,05,31,07,53,15.20
2019,05,31,07,54,15.20
2019,05,31,07,55,15.30
2019,05,31,07,56,15.40
2019,05,31,07,57,15.40
2019,05,31,07,58,15.50
2019,05,31,07,59,15.60
2019,05,31,08,00,15.60
2019,05,31,08,01,15.70
2019,05,31,08,02,15.80
2019,05,31,08,03,15.80
2019,05,31,08,04,15.90
2019,05,31,08,05,16.00
2019,05,31,08,06,16.00
2019,05,31,08,07,16.10
2019,05,31,08,08,16.20
2019,05,31,08,09,16.30
2019,05,31,08,10,16.30
2019,05,31,08,11,16.40
2019,05,31,08,12,16.50
2019,05,31,08,13,16.60
2019,05,31,08,14,16.70
2019,05,31,08,15,16.80
2019,05,31,08,16,16.90
2019,05,31,08,17,17.10
2019,05,31,08,18,17.20
2019,05,31,08,19,17.30
2019,05,31,08,20,17.40
2019,05,31,08,21,17.50
2019,05,31,08,22,17.60
2019,05,31,08,23,17.60
2019,05,31,08,24,17.70
2019,05,31,08,25,17.70
2019,05,31,08,26,17.80
2019,05,31,08,27,17.90
2019,05,31,08,28,17.90
2019,05,31,08,29,18.00
2019,05,31,08,30,18.00
2019,05,31,08,31,18.10
2019,05,31,08,32,18.10
2019,05,31,08,33,18.20
2019,05,31,08,34,18.20
2019,05,31,08,35,18.30
2019,05,31,08,36,18.30
2019,05,31,08,37,18.40
2019,05,31,08,38,18.40
2019,05,31,08,39,18.40
2019,05,31,08,40,18.50
2019,05,31,08,41,18.50
2019,05,31,08,42,18.60
2019,05,31,08,43,18.60
2019,05,31,08,44,18.70
2019,05,31,08,45,18.70
2019,05,31,08,46,18.80
2019,05,31,08,47,18.80
2019,05,31,08,48,18.80
2019,05,31,08,49,18.90
2019,05,31,08,50,18.90
2019,05,31,08,51,18.90
2019,05,31,08,52,19.00
2019,05,31,08,53,19.00
2019,05,31,08,54,19.10
2019,05,31,08,55,19.10
2019,05,31,08,56,19.10
2019,05,31,08,57,19.20
2019,05,31,08,58,19.20
2019,05,31,08,59,19.20
2019,05,31,09,00,19.30
2019,05,31,09,01,19.30
2019,05,31,09,02,19.30
2019,05,31,09,03,19.30
2019,05,31,09,04,19.40
2019,05,31,09,05,19.40
2019,05,31,09,06,19.40
2019,05,31,09,07,19.40
2019,05,31,09,08,19.40
2019,05,31,09,09,19.40
2019,05,31,09,10,19.40
2019,05,31,09,11,19.50
2019,05,31,09,12,19.50
2019,05,31,09,13,19.50
2019,05,31,09,14,19.60
2019,05,31,09,15,19.60
2019,05,31,09,16,19.70
2019,05,31,09,17,19.70
2019,05,31,09,18,19.70
2019,05,31,09,19,19.80
2019,05,31,09,20,19.80
2019,05,31,09,21,19.80
2019,05,31,09,22,19.90
2019,05,31,09,23,19.90
2019,05,31,09,24,19.90
2019,05,31,09,25,20.00
2019,05,31,09,26,20.00
2019,05,31,09,27,20.10
2019,05,31,09,28,20.10
2019,05,31,09,29,20.10
2019,05,31,09,30,20.10
2019,05,31,09,31,20.10
2019,05,31,09,32,20.10
2019,05,31,09,33,20.10
2019,05,31,09,34,20.00
2019,05,31,09,35,20.00
2019,05,31,09,36,20.00
2019,05,31,09,37,20.00
2019,05,31,09,38,20.00
2019,05,31,09,39,20.10
2019,05,31,09,40,20.10
2019,05,31,09,41,20.10
2019,05,31,09,42,20.10
2019,05,31,09,43,20.10
2019,05,31,09,44,20.10
2019,05,31,09,45,20.20
2019,05,31,09,46,20.20
2019,05,31,09,47,20.20
2019,05,31,09,48,20.20
2019,05,31,09,49,20.30
2019,05,31,09,50,20.30
2019,05,31,09,51,20.30
2019,05,31,09,52,20.30
2019,05,31,09,53,20.30
2019,05,31,09,54,20.30
2019,05,31,09,55,20.30
2019,05,31,09,56,20.40
2019,05,31,09,57,20.40
2019,05,31,09,58,20.40
2019,05,31,09,59,20.50
2019,05,31,10,00,20.50
2019,05,31,10,01,20.60
2019,05,31,10,02,20.60
2019,05,31,10,03,20.70
2019,05,31,10,04,20.70
2019,05,31,10,05,20.80
2019,05,31,10,06,20.80
2019,05,31,10,07,20.80
2019,05,31,10,08,20.80
2019,05,31,10,09,20.80
2019,05,31,10,10,20.80
2019,05,31,10,11,20.80
2019,05,31,10,12,20.80
2019,05,31,10,13,20.80
2019,05,31,10,14,20.90
2019,05,31,10,15,20.90
2019,05,31,10,16,20.90
2019,05,31,10,17,20.90
2019,05,31,10,18,21.00
2019,05,31,10,19,21.10
2019,05,31,10,20,21.10
2019,05,31,10,21,21.20
2019,05,31,10,22,21.20
2019,05,31,10,23,21.30
2019,05,31,10,24,21.30
2019,05,31,10,25,21.30
2019,05,31,10,26,21.30
2019,05,31,10,27,21.30
2019,05,31,10,28,21.20
2019,05,31,10,29,21.10
2019,05,31,10,30,21.10
2019,05,31,10,31,21.00
2019,05,31,10,32,21.00
2019,05,31,10,33,20.90
2019,05,31,10,34,20.80
2019,05,31,10,35,20.80
2019,05,31,10,36,20.70
2019,05,31,10,37,20.70
2019,05,31,10,38,20.70
2019,05,31,10,39,20.70
2019,05,31,10,40,20.80
2019,05,31,10,41,20.80
2019,05,31,10,42,20.90
2019,05,31,10,43,21.00
2019,05,31,10,44,21.00
2019,05,31,10,45,21.10
2019,05,31,10,46,21.20
2019,05,31,10,47,21.20
2019,05,31,10,48,21.30
2019,05,31,10,49,21.40
2019,05,31,10,50,21.50
2019,05,31,10,51,21.60
2019,05,31,10,52,21.60
2019,05,31,10,53,21.70
2019,05,31,10,54,21.80
2019,05,31,10,55,21.80
2019,05,31,10,56,21.90
2019,05,31,10,57,21.90
2019,05,31,10,58,21.90
2019,05,31,10,59,21.90
2019,05,31,11,00,21.90
2019,05,31,11,01,22.00
2019,05,31,11,02,22.00
2019,05,31,11,03,22.00
2019,05,31,11,04,22.00
2019,05,31,11,05,21.90
2019,05,31,11,06,21.90
2019,05,31,11,07,21.90
2019,05,31,11,08,21.90
2019,05,31,11,09,21.90
2019,05,31,11,10,21.90
2019,05,31,11,11,21.90
2019,05,31,11,12,21.90
2019,05,31,11,13,21.90
2019,05,31,11,14,21.80
2019,05,31,11,15,21.80
2019,05,31,11,16,21.70
2019,05,31,11,17,21.60
2019,05,31,11,18,21.60
2019,05,31,11,19,21.60
2019,05,31,11,20,21.60
2019,05,31,11,21,21.60
2019,05,31,11,22,21.60
2019,05,31,11,23,21.60
2019,05,31,11,24,21.50
2019,05,31,11,25,21.50
2019,05,31,11,26,21.50
2019,05,31,11,27,21.50
2019,05,31,11,28,21.50
2019,05,31,11,29,21.60
2019,05,31,11,30,21.60
2019,05,31,11,31,21.60
2019,05,31,11,32,21.60
2019,05,31,11,33,21.60
2019,05,31,11,34,21.50
2019,05,31,11,35,21.40
2019,05,31,11,36,21.40
2019,05,31,11,37,21.40
2019,05,31,11,38,21.40
2019,05,31,11,39,21.40
2019,05,31,11,40,21.40
2019,05,31,11,41,21.40
2019,05,31,11,42,21.30
2019,05,31,11,43,21.30
2019,05,31,11,44,21.20
2019,05,31,11,45,21.20
2019,05,31,11,46,21.20
2019,05,31,11,47,21.20
2019,05,31,11,48,21.20
2019,05,31,11,49,21.20
2019,05,31,11,50,21.20
2019,05,31,11,51,21.20
2019,05,31,11,52,21.30
2019,05,31,11,53,21.30
2019,05,31,11,54,21.30
2019,05,31,11,55,21.30
2019,05,31,11,56,21.30
2019,05,31,11,57,21.30
2019,05,31,11,58,21.30
2019,05,31,11,59,21.20
2019,05,31,12,00,21.30
2019,05,31,12,01,21.30
2019,05,31,12,02,21.30
2019,05,31,12,03,21.30
2019,05,31,12,04,21.30
2019,05,31,12,05,21.40
2019,05,31,12,06,21.40
2019,05,31,12,07,21.40
2019,05,31,12,08,21.50
2019,05,31,12,09,21.50
2019,05,31,12,10,21.60
2019,05,31,12,11,21.60
2019,05,31,12,12,21.60
2019,05,31,12,13,21.60
2019,05,31,12,14,21.70
2019,05,31,12,15,21.70
2019,05,31,12,16,21.70
2019,05,31,12,17,21.70
2019,05,31,12,18,21.70
2019,05,31,12,19,21.70
2019,05,31,12,20,21.70
2019,05,31,12,21,21.70
2019,05,31,12,22,21.70
2019,05,31,12,23,21.70
2019,05,31,12,24,21.70
2019,05,31,12,25,21.70
2019,05,31,12,26,21.80
2019,05,31,12,27,21.80
2019,05,31,12,28,21.80
2019,05,31,12,29,21.80
2019,05,31,12,30,21.80
2019,05,31,12,31,21.70
2019,05,31,12,32,21.70
2019,05,31,12,33,21.70
2019,05,31,12,34,21.60
2019,05,31,12,35,21.60
2019,05,31,12,36,21.60
2019,05,31,12,37,21.60
2019,05,31,12,38,21.50
2019,05,31,12,39,21.50
2019,05,31,12,40,21.50
2019,05,31,12,41,21.40
2019,05,31,12,42,21.40
2019,05,31,12,43,21.40
2019,05,31,12,44,21.40
2019,05,31,12,45,21.40
2019,05,31,12,46,21.50
2019,05,31,12,47,21.50
2019,05,31,12,48,21.60
2019,05,31,12,49,21.60
2019,05,31,12,50,21.70
2019,05,31,12,51,21.70
2019,05,31,12,52,21.80
2019,05,31,12,53,21.80
2019,05,31,12,54,21.80
2019,05,31,12,55,21.80
2019,05,31,12,56,21.70
2019,05,31,12,57,21.70
2019,05,31,12,58,21.70
2019,05,31,12,59,21.70
2019,05,31,13,00,21.70
2019,05,31,13,01,21.70
2019,05,31,13,02,21.70
2019,05,31,13,03,21.80
2019,05,31,13,04,21.80
2019,05,31,13,05,21.80
2019,05,31,13,06,21.80
2019,05,31,13,07,21.80
2019,05,31,13,08,21.90
2019,05,31,13,09,21.90
2019,05,31,13,10,21.90
2019,05,31,13,11,21.90
2019,05,31,13,12,21.90
2019,05,31,13,13,22.00
2019,05,31,13,14,22.10
2019,05,31,13,15,22.10
2019,05,31,13,16,22.10
2019,05,31,13,17,22.10
2019,05,31,13,18,22.20
2019,05,31,13,19,22.20
2019,05,31,13,20,22.20
2019,05,31,13,21,22.20
2019,05,31,13,22,22.30
2019,05,31,13,23,22.30
2019,05,31,13,24,22.30
2019,05,31,13,25,22.30
2019,05,31,13,26,22.40
2019,05,31,13,27,22.40
2019,05,31,13,28,22.40
2019,05,31,13,29,22.40
2019,05,31,13,30,22.40
2019,05,31,13,31,22.40
2019,05,31,13,32,22.40
2019,05,31,13,33,22.50
2019,05,31,13,34,22.50
2019,05,31,13,35,22.50
2019,05,31,13,36,22.50
2019,05,31,13,37,22.50
2019,05,31,13,38,22.50
2019,05,31,13,39,22.50
2019,05,31,13,40,22.50
2019,05,31,13,41,22.40
2019,05,31,13,42,22.40
2019,05,31,13,43,22.40
2019,05,31,13,44,22.50
2019,05,31,13,45,22.50
2019,05,31,13,46,22.50
2019,05,31,13,47,22.50
2019,05,31,13,48,22.50
2019,05,31,13,49,22.50
2019,05,31,13,50,22.50
2019,05,31,13,51,22.50
2019,05,31,13,52,22.50
2019,05,31,13,53,22.50
2019,05,31,13,54,22.50
2019,05,31,13,55,22.50
2019,05,31,13,56,22.40
2019,05,31,13,57,22.40
2019,05,31,13,58,22.40
2019,05,31,13,59,22.40
2019,05,31,14,00,22.30
2019,05,31,14,01,22.30
2019,05,31,14,02,22.30
2019,05,31,14,03,22.30
2019,05,31,14,04,22.40
2019,05,31,14,05,22.40
2019,05,31,14,06,22.30
2019,05,31,14,07,22.30
2019,05,31,14,08,22.30
2019,05,31,14,09,22.30
2019,05,31,14,10,22.20
2019,05,31,14,11,22.20
2019,05,31,14,12,22.00
2019,05,31,14,13,21.90
2019,05,31,14,14,21.90
2019,05,31,14,15,21.80
2019,05,31,14,16,21.80
2019,05,31,14,17,21.70
2019,05,31,14,18,21.70
2019,05,31,14,19,21.70
2019,05,31,14,20,21.60
2019,05,31,14,21,21.60
2019,05,31,14,22,21.50
2019,05,31,14,23,21.40
2019,05,31,14,24,21.40
2019,05,31,14,25,21.50
2019,05,31,14,26,21.50
2019,05,31,14,27,21.60
2019,05,31,14,28,21.60
2019,05,31,14,29,21.70
2019,05,31,14,30,21.70
2019,05,31,14,31,21.70
2019,05,31,14,32,21.80
2019,05,31,14,33,21.80
2019,05,31,14,34,21.80
2019,05,31,14,35,21.80
2019,05,31,14,36,21.90
2019,05,31,14,37,21.90
2019,05,31,14,38,21.90
2019,05,31,14,39,22.00
2019,05,31,14,40,22.10
2019,05,31,14,41,22.10
2019,05,31,14,42,22.10
2019,05,31,14,43,22.20
2019,05,31,14,44,22.20
2019,05,31,14,45,22.20
2019,05,31,14,46,22.20
2019,05,31,14,47,22.30
2019,05,31,14,48,22.30
2019,05,31,14,49,22.30
2019,05,31,14,50,22.30
2019,05,31,14,51,22.30
2019,05,31,14,52,22.30
2019,05,31,14,53,22.30
2019,05,31,14,54,22.20
2019,05,31,14,55,22.20
2019,05,31,14,56,22.20
2019,05,31,14,57,22.20
2019,05,31,14,58,22.20
2019,05,31,14,59,22.20
2019,05,31,15,00,22.30
2019,05,31,15,01,22.30
2019,05,31,15,02,22.40
2019,05,31,15,03,22.40
2019,05,31,15,04,22.40
2019,05,31,15,05,22.50
2019,05,31,15,06,22.50
2019,05,31,15,07,22.60
2019,05,31,15,08,22.60
2019,05,31,15,09,22.70
2019,05,31,15,10,22.70
2019,05,31,15,11,22.70
2019,05,31,15,12,22.80
2019,05,31,15,13,22.80
2019,05,31,15,14,22.80
2019,05,31,15,15,22.90
2019,05,31,15,16,22.90
2019,05,31,15,17,22.80
2019,05,31,15,18,22.80
2019,05,31,15,19,22.80
2019,05,31,15,20,22.80
2019,05,31,15,21,22.80
2019,05,31,15,22,22.80
2019,05,31,15,23,22.90
2019,05,31,15,24,22.90
2019,05,31,15,25,22.90
2019,05,31,15,26,23.00
2019,05,31,15,27,23.00
2019,05,31,15,28,23.10
2019,05,31,15,29,23.10
2019,05,31,15,30,23.20
2019,05,31,15,31,23.20
2019,05,31,15,32,23.20
2019,05,31,15,33,23.20
2019,05,31,15,34,23.20
2019,05,31,15,35,23.20
2019,05,31,15,36,23.20
2019,05,31,15,37,23.20
2019,05,31,15,38,23.20
2019,05,31,15,39,23.20
2019,05,31,15,40,23.20
2019,05,31,15,41,23.20
2019,05,31,15,42,23.20
2019,05,31,15,43,23.20
2019,05,31,15,44,23.20
2019,05,31,15,45,23.20
2019,05,31,15,46,23.20
2019,05,31,15,47,23.20
2019,05,31,15,48,23.20
2019,05,31,15,49,23.20
2019,05,31,15,50,23.20
2019,05,31,15,51,23.20
2019,05,31,15,52,23.20
2019,05,31,15,53,23.20
2019,05,31,15,54,23.20
2019,05,31,15,55,23.10
2019,05,31,15,56,23.00
2019,05,31,15,57,23.00
2019,05,31,15,58,22.90
2019,05,31,15,59,22.90
2019,05,31,16,00,22.90
2019,05,31,16,01,22.90
2019,05,31,16,02,22.90
2019,05,31,16,03,22.90
2019,05,31,16,04,22.90
2019,05,31,16,05,22.90
2019,05,31,16,06,23.00
2019,05,31,16,07,23.00
2019,05,31,16,08,23.00
2019,05,31,16,09,23.10
2019,05,31,16,10,23.10
2019,05,31,16,11,23.10
2019,05,31,16,12,23.10
2019,05,31,16,13,23.10
2019,05,31,16,14,23.00
2019,05,31,16,15,23.00
2019,05,31,16,16,23.00
2019,05,31,16,17,22.90
2019,05,31,16,18,22.90
2019,05,31,16,19,22.90
2019,05,31,16,20,22.80
2019,05,31,16,21,22.80
2019,05,31,16,22,22.80
2019,05,31,16,23,22.70
2019,05,31,16,24,22.70
2019,05,31,16,25,22.70
2019,05,31,16,26,22.60
2019,05,31,16,27,22.60
2019,05,31,16,28,22.60
2019,05,31,16,29,22.60
2019,05,31,16,30,22.60
2019,05,31,16,31,22.60
2019,05,31,16,32,22.60
2019,05,31,16,33,22.60
2019,05,31,16,34,22.60
2019,05,31,16,35,22.60
2019,05,31,16,36,22.60
2019,05,31,16,37,22.60
2019,05,31,16,38,22.70
2019,05,31,16,39,22.70
2019,05,31,16,40,22.80
2019,05,31,16,41,22.80
2019,05,31,16,42,22.90
2019,05,31,16,43,22.90
2019,05,31,16,44,22.90
2019,05,31,16,45,22.90
2019,05,31,16,46,22.90
2019,05,31,16,47,22.90
2019,05,31,16,48,22.90
2019,05,31,16,49,22.90
2019,05,31,16,50,22.90
2019,05,31,16,51,22.90
2019,05,31,16,52,23.00
2019,05,31,16,53,23.00
2019,05,31,16,54,23.00
2019,05,31,16,55,23.00
2019,05,31,16,56,23.00
2019,05,31,16,57,23.00
2019,05,31,16,58,23.10
2019,05,31,16,59,23.10
2019,05,31,17,00,23.10
2019,05,31,17,01,23.20
2019,05,31,17,02,23.10
2019,05,31,17,03,23.10
2019,05,31,17,04,23.10
2019,05,31,17,05,23.10
2019,05,31,17,06,23.00
2019,05,31,17,07,22.90
2019,05,31,17,08,22.90
2019,05,31,17,09,22.90
2019,05,31,17,10,22.90
2019,05,31,17,11,22.80
2019,05,31,17,12,22.80
2019,05,31,17,13,22.80
2019,05,31,17,14,22.80
2019,05,31,17,15,22.80
2019,05,31,17,16,22.80
2019,05,31,17,17,22.80
2019,05,31,17,18,22.80
2019,05,31,17,19,22.80